When you browse on this site, cookies collect data to enhance your experience and personalize the content and advertising you see.
Visit our Privacy Policy to learn more. By continuing to use the site, you agree to this use of cookies and data.
  • In Hungary
  • List of Countries
  • For 7 days
  • Water Temperature
  • Satellite Maps
  • Weather Map
  • News
  • Weather Widgets
  • user-avatar
    Login

    Hourly Weather Dhulikhel

    Today, 18 February, Monday

    Time Temperature Precipitation Wind Pressure Humidity
    00:00 +15°C° 0 mm 1 mps 725 mmHg 87%
    01:00 +14°C° 0 mm 1 mps 725 mmHg 87%
    02:00 +14°C° 0 mm 1 mps 724 mmHg 87%
    03:00 +14°C° 0 mm 1 mps 724 mmHg 87%
    04:00 +14°C° 0 mm 1 mps 724 mmHg 86%
    05:00 +14°C° 0 mm 1 mps 724 mmHg 86%
    06:00 +13°C° 0 mm 1 mps 724 mmHg 86%
    07:00 +15°C° 0 mm 1 mps 724 mmHg 79%
    08:00 +18°C° 0 mm 1 mps 725 mmHg 71%
    09:00 +20°C° 0 mm 1 mps 725 mmHg 63%
    10:00 +21°C° 0 mm 1 mps 725 mmHg 60%
    11:00 +21°C° 0 mm 2 mps 725 mmHg 56%
    12:00 +22°C° 0 mm 3 mps 726 mmHg 55%
    13:00 +23°C° 0.1 mm 2 mps 725 mmHg 57%
    14:00 +23°C° 0.1 mm 2 mps 725 mmHg 59%
    15:00 +21°C° 0.1 mm 2 mps 725 mmHg 61%
    16:00 +20°C° 0.2 mm 2 mps 725 mmHg 65%
    17:00 +19°C° 0.2 mm 2 mps 725 mmHg 69%
    18:00 +19°C° 0 mm 1 mps 724 mmHg 74%
    19:00 +19°C° 0.6 mm 1 mps 725 mmHg 77%
    20:00 +18°C° 0.6 mm 1 mps 725 mmHg 79%
    21:00 +18°C° 0.6 mm 1 mps 726 mmHg 82%
    22:00 +16°C° 0.6 mm 1 mps 726 mmHg 82%
    23:00 +16°C° 0.6 mm 1 mps 726 mmHg 83%

    Tomorrow, 19 February, Tuesday

    Time Temperature Precipitation Wind Pressure Humidity
    00:00 +16°C° 0.6 mm 1 mps 727 mmHg 83%
    01:00 +16°C° 0.2 mm 1 mps 727 mmHg 82%
    02:00 +16°C° 0.2 mm 1 mps 727 mmHg 80%
    03:00 +15°C° 0.2 mm 1 mps 726 mmHg 79%
    04:00 +15°C° 0 mm 1 mps 727 mmHg 76%
    05:00 +15°C° 0 mm 1 mps 727 mmHg 74%
    06:00 +15°C° 0 mm 1 mps 727 mmHg 71%
    07:00 +16°C° 0.1 mm 1 mps 728 mmHg 64%
    08:00 +19°C° 0.1 mm 1 mps 728 mmHg 57%
    09:00 +21°C° 0.1 mm 1 mps 729 mmHg 50%
    10:00 +22°C° 0.1 mm 1 mps 729 mmHg 46%
    11:00 +24°C° 0.1 mm 1 mps 729 mmHg 41%
    12:00 +24°C° 0.1 mm 0 mps 729 mmHg 36%
    13:00 +26°C° 0 mm 1 mps 728 mmHg 37%
    14:00 +26°C° 0 mm 1 mps 728 mmHg 37%
    15:00 +26°C° 0 mm 2 mps 727 mmHg 37%
    16:00 +25°C° 0 mm 2 mps 727 mmHg 43%
    17:00 +24°C° 0 mm 2 mps 727 mmHg 48%
    18:00 +22°C° 0 mm 1 mps 727 mmHg 53%
    19:00 +20°C° 0 mm 2 mps 728 mmHg 55%
    20:00 +19°C° 0 mm 2 mps 728 mmHg 57%
    21:00 +18°C° 0 mm 2 mps 729 mmHg 59%
    22:00 +17°C° 0 mm 2 mps 729 mmHg 58%
    23:00 +17°C° 0 mm 2 mps 729 mmHg 56%

    Day after tomorrow, 20 February, Wednesday

    Time Temperature Precipitation Wind Pressure Humidity
    00:00 +17°C° 0 mm 2 mps 729 mmHg 55%
    01:00 +16°C° 0 mm 2 mps 729 mmHg 54%
    02:00 +16°C° 0 mm 2 mps 729 mmHg 53%
    03:00 +16°C° 0 mm 2 mps 729 mmHg 53%
    04:00 +16°C° 0 mm 2 mps 729 mmHg 52%
    05:00 +16°C° 0 mm 2 mps 729 mmHg 51%
    06:00 +15°C° 0 mm 2 mps 729 mmHg 51%
    07:00 +18°C° 0 mm 1 mps 729 mmHg 46%
    08:00 +21°C° 0 mm 1 mps 730 mmHg 41%
    09:00 +23°C° 0 mm 1 mps 731 mmHg 37%
    10:00 +24°C° 0 mm 2 mps 731 mmHg 36%
    11:00 +25°C° 0 mm 2 mps 731 mmHg 35%
    12:00 +26°C° 0 mm 3 mps 731 mmHg 35%
    13:00 +27°C° 0 mm 2 mps 730 mmHg 35%
    14:00 +27°C° 0 mm 2 mps 730 mmHg 36%
    15:00 +27°C° 0 mm 2 mps 729 mmHg 36%
    16:00 +26°C° 0 mm 2 mps 729 mmHg 42%
    17:00 +24°C° 0 mm 1 mps 729 mmHg 48%
    18:00 +23°C° 0 mm 1 mps 729 mmHg 53%
    19:00 +22°C° 0 mm 1 mps 730 mmHg 55%
    20:00 +21°C° 0 mm 1 mps 730 mmHg 57%
    21:00 +20°C° 0 mm 1 mps 731 mmHg 59%
    22:00 +20°C° 0 mm 1 mps 731 mmHg 59%
    23:00 +19°C° 0 mm 1 mps 731 mmHg 59%

    21 February, Thursday

    Time Temperature Precipitation Wind Pressure Humidity
    00:00 +19°C° 0 mm 1 mps 731 mmHg 59%
    01:00 +19°C° 0 mm 1 mps 731 mmHg 57%
    02:00 +19°C° 0 mm 1 mps 731 mmHg 55%
    03:00 +18°C° 0 mm 1 mps 731 mmHg 53%
    04:00 +18°C° 0 mm 1 mps 730 mmHg 50%
    05:00 +17°C° 0 mm 2 mps 730 mmHg 46%
    06:00 +17°C° 0 mm 2 mps 730 mmHg 42%
    07:00 +19°C° 0 mm 2 mps 731 mmHg 39%
    08:00 +22°C° 0 mm 1 mps 732 mmHg 36%
    09:00 +24°C° 0 mm 1 mps 732 mmHg 33%
    10:00 +25°C° 0 mm 2 mps 732 mmHg 33%
    11:00 +26°C° 0 mm 2 mps 732 mmHg 34%
    12:00 +28°C° 0 mm 2 mps 732 mmHg 34%
    13:00 +28°C° 0 mm 2 mps 731 mmHg 34%
    14:00 +29°C° 0 mm 2 mps 730 mmHg 34%
    15:00 +30°C° 0 mm 3 mps 729 mmHg 33%
    16:00 +28°C° 0 mm 2 mps 729 mmHg 40%
    17:00 +26°C° 0 mm 2 mps 729 mmHg 46%
    18:00 +24°C° 0 mm 1 mps 729 mmHg 53%
    19:00 +23°C° 0 mm 1 mps 729 mmHg 54%
    20:00 +22°C° 0 mm 1 mps 730 mmHg 54%
    21:00 +20°C° 0 mm 2 mps 730 mmHg 55%
    22:00 +20°C° 0 mm 2 mps 730 mmHg 51%
    23:00 +20°C° 0 mm 2 mps 730 mmHg 46%

    22 February, Friday

    Time Temperature Precipitation Wind Pressure Humidity
    00:00 +20°C° 0 mm 2 mps 730 mmHg 42%
    01:00 +20°C° 0 mm 2 mps 730 mmHg 38%
    02:00 +19°C° 0 mm 2 mps 729 mmHg 34%
    03:00 +19°C° 0 mm 2 mps 729 mmHg 29%
    04:00 +19°C° 0 mm 2 mps 729 mmHg 29%
    05:00 +19°C° 0 mm 2 mps 729 mmHg 28%
    06:00 +19°C° 0 mm 2 mps 729 mmHg 27%
    07:00 +21°C° 0 mm 2 mps 729 mmHg 27%
    08:00 +24°C° 0 mm 1 mps 730 mmHg 26%
    09:00 +26°C° 0 mm 1 mps 731 mmHg 26%
    10:00 +28°C° 0 mm 1 mps 731 mmHg 24%
    11:00 +30°C° 0 mm 2 mps 730 mmHg 22%
    12:00 +31°C° 0 mm 2 mps 730 mmHg 21%
    13:00 +32°C° 0 mm 2 mps 729 mmHg 21%
    14:00 +33°C° 0 mm 3 mps 728 mmHg 22%
    15:00 +33°C° 0 mm 3 mps 728 mmHg 22%
    16:00 +30°C° 0 mm 3 mps 728 mmHg 28%
    17:00 +28°C° 0 mm 2 mps 727 mmHg 33%
    18:00 +26°C° 0 mm 2 mps 727 mmHg 39%
    19:00 +25°C° 0 mm 2 mps 728 mmHg 39%
    20:00 +23°C° 0 mm 2 mps 728 mmHg 39%
    21:00 +21°C° 0 mm 2 mps 729 mmHg 40%
    22:00 +21°C° 0 mm 2 mps 729 mmHg 37%
    23:00 +20°C° 0 mm 2 mps 729 mmHg 35%

    23 February, Saturday

    Time Temperature Precipitation Wind Pressure Humidity
    00:00 +20°C° 0 mm 2 mps 729 mmHg 32%
    01:00 +20°C° 0 mm 2 mps 728 mmHg 31%
    02:00 +19°C° 0 mm 2 mps 728 mmHg 29%
    03:00 +19°C° 0 mm 2 mps 727 mmHg 28%
    04:00 +19°C° 0 mm 2 mps 727 mmHg 28%
    05:00 +19°C° 0 mm 2 mps 727 mmHg 27%
    06:00 +19°C° 0 mm 2 mps 727 mmHg 27%
    07:00 +21°C° 0 mm 2 mps 728 mmHg 26%
    08:00 +23°C° 0 mm 2 mps 728 mmHg 26%
    09:00 +25°C° 0 mm 1 mps 729 mmHg 26%
    10:00 +27°C° 0 mm 2 mps 729 mmHg 23%
    11:00 +29°C° 0 mm 2 mps 729 mmHg 20%
    12:00 +31°C° 0 mm 2 mps 728 mmHg 18%
    13:00 +31°C° 0 mm 3 mps 728 mmHg 17%
    14:00 +32°C° 0 mm 4 mps 727 mmHg 17%
    15:00 +33°C° 0 mm 4 mps 726 mmHg 16%
    16:00 +29°C° 0 mm 4 mps 726 mmHg 21%
    17:00 +27°C° 0 mm 3 mps 726 mmHg 26%
    18:00 +25°C° 0 mm 2 mps 726 mmHg 31%
    19:00 +24°C° 0 mm 2 mps 726 mmHg 32%
    20:00 +21°C° 0 mm 2 mps 727 mmHg 34%
    21:00 +20°C° 0 mm 2 mps 727 mmHg 35%
    22:00 +20°C° 0 mm 2 mps 727 mmHg 32%
    23:00 +19°C° 0 mm 2 mps 727 mmHg 29%
    Show more